This demonstration page uses our WeatherBlox Daily Observations layout. Learn more.

Left ArrowRight Arrow

53.62937, 11.41316

Hourly Observations for February 9, 2018

Temp ( °F °C ) Dew Point ( °F °C ) Humidity (%) Winds ( mph kmh ) Pressure ( in mb ) Visibility ( mi km ) Precip ( " mm )
7:50 am 07:50 Mostly Sunny 18 -8 16 -9 93 93 E 6 9 30.09 1019 4 6 N/A
8:20 am 08:20 Mostly Sunny 16 -9 14 -10 93 93 ENE 6 9 30.09 1019 4 6 N/A
8:50 am 08:50 Mostly Sunny 18 -8 16 -9 93 93 ENE 6 9 30.06 1018 4 6 N/A
9:20 am 09:20 Mostly Sunny 21 -6 19 -7 93 93 ENE 6 9 30.09 1019 4 6 N/A
9:50 am 09:50 Mostly Sunny 23 -5 21 -6 93 93 ENE 6 9 30.09 1019 4 6 N/A
10:20 am 10:20 Mostly Sunny 27 -3 21 -6 80 80 ENE 6 9 30.06 1018 4 7 N/A
10:50 am 10:50 Mostly Sunny 28 -2 23 -5 80 80 E 3 6 30.06 1018 4 7 N/A
11:20 am 11:20 Mostly Sunny 30 -1 23 -5 75 75 SE 7 11 30.03 1017 5 8 N/A
11:50 am 11:50 Mostly Sunny 30 -1 21 -6 69 69 SE 10 17 30.03 1017 6 9 N/A
12:20 pm 12:20 Mostly Sunny 32 0 21 -6 64 64 SE 10 17 30.00 1016 6 9 N/A
12:50 pm 12:50 Mostly Sunny 32 0 21 -6 64 64 SSE 10 17 30.00 1016 6 9 N/A
1:20 pm 13:20 Mostly Sunny 32 0 23 -5 69 69 SE 9 15 30.00 1016 5 8 N/A
1:50 pm 13:50 Mostly Sunny 32 0 23 -5 69 69 SE 9 15 30.00 1016 5 8 N/A
2:20 pm 14:20 Mostly Sunny 32 0 23 -5 69 69 ESE 7 11 29.97 1015 5 8 N/A
2:50 pm 14:50 Mostly Sunny 32 0 23 -5 69 69 E 9 15 29.97 1015 5 8 N/A
3:20 pm 15:20 Mostly Sunny 32 0 23 -5 69 69 ESE 8 13 29.97 1015 5 8 N/A
3:50 pm 15:50 Mostly Sunny 32 0 23 -5 69 69 ESE 8 13 29.97 1015 5 8 N/A
4:20 pm 16:20 Mostly Sunny 32 0 23 -5 69 69 ESE 9 15 29.97 1015 5 8 N/A
4:50 pm 16:50 Mostly Sunny 30 -1 23 -5 75 75 ESE 6 9 29.97 1015 5 8 N/A
5:20 pm 17:20 Mostly Clear 30 -1 23 -5 75 75 ESE 6 9 29.97 1015 4 7 N/A
5:50 pm 17:50 Mostly Clear 28 -2 23 -5 80 80 E 5 7 30.00 1016 4 7 N/A

Powered by AerisWeather